User: anonymous
Location: Caltech
(34.1382°N, 118.1253°W)
Time: 00:24:08
(UTC-07:00)
Language:

Cosmos 1606 - Orbit

View from above orbital plane
View from above orbital plane
View from above satellite
View from above satellite

Ground track
Ground track

The orbit data is extracted from the following two-line orbital elements,

1 15369U 84111A   14211.75609929  .00001712  00000-0  10201-3 0  5832
2 15369 082.5312 074.9780 0019190 299.1397 060.7911 15.10405929621236
Epoch (UTC): 30 July 2014 18:08:46
Eccentricity: 0.0019190
inclination: 82.5312°
perigee height: 522 km
apogee height: 548 km
right ascension of ascending node: 74.9780°
argument of perigee: 299.1397°
revolutions per day: 15.10405929
mean anomaly at epoch: 60.7911°
orbit number at epoch: 62123

The dashed part of the orbit path shows where the satellite is in the earth's shadow,  

DLR